Погода Агинское

Погода Агинское : погода сейчас, прогноз погоды и архив. Всё, что Вы хотите узнать о погоде Агинское!

Хотите узнать прогноз погоды Агинское? Тогда Вам сюда: Погода Агинское

Поиск расширенной информации на нашем сайте:

Другие новости

Новости СМИ2

Главная страница сайта

Новости сайта

03.07.2017

Напоминаем, что на нашем специализированном сайте Метеоцентр.Азия вы можете получить высокодетализированные автоматические прогнозы погоды по пунктам России, СНГ и мира в авиационном формате (включающие направление и скорость ветра, видимость, явления погоды, количество и форму облачности, нижнюю и верхнюю границу облачности).

Рекомендуем: Сравнить цены на полиграфические и дизайнерские услуги www.poli33.ru.

Погода Агинское - сегодня

Время (UTC), дата Ветер
(°,м/с) 
Видим.   Явления Облачность Т
(°С)
Тd
(°С)
f(%) Тe
(°С)
Pmin
(гПа)
dP
(гПа)
Po
(мм)
O2
(г/м3)
Тmin Tmax R s Состояние
почвы
00 18.11.17 240 (ЮЗ) 20000 м    ясно 
-0.3 -10.9 45 -1  1025.9  -0.5  738  299  -12.9      11  равномерный
сухой снег
100% 
03 18.11.17 250 (З) 20000 м    10/10 1200 м 
[Sc]
+0.5 -10.2 44 1025.9  0.1  738  298           
06 18.11.17 270 (З) 20000 м    10/3 1000 м средняя 
[Sc|Ac As]
+1.5 -9.5 44 1025.8  738  297           
09 18.11.17 250 (З) 4{11}  20000 м    9/4 1000 м средняя 
[Sc|Ac cast]
+1.3 -9.4 45 -1  1025.5  -0.2  738  297           
12 18.11.17 тихо ()   20000 м    10/10 1170 м 
[Sc]
+0.4 -8.7 50 1025.7  738  298    +2       
15 18.11.17 210 (ЮЗ) 20000 м    6/6 1000 м 
[Sc]
-3.9 -8.6 70 -3  1025.5  -0.9  737  302           
18 18.11.17 тихо ()   20000 м    ясно 
-8.5 -10.2 87 -9  1024.4  -1.7  736  307           
21 18.11.17 350 (С) 20000 м    ясно 
-12.8 -13.6 94 -13  1023.5  -1.6  735  312           
00 19.11.17 010 (С) 20000 м    ясно 
-13 -14.2 91 -13  1022.3  -1.1  734  312  -14.4      равномерный
сухой снег
100% 
03 19.11.17 340 (С) 20000 м    10/5 1000 м средняя, верхняя 
[Sc|Ac As|Ci sp]
-11 -12.8 87 -11  1020.5  -1.4  733  309           
06 19.11.17 260 (З) 20000 м    10/6 600 м кучево-дожд., средняя, верхняя 
[Cb cap|Ac As|Cs]
+4.7 -12.7 27 +3  1017.1  -0.9  732  291           
09 19.11.17 260 (З) 4{10}  20000 м    10/10 900 м кучево-дожд. 
[Cb cap]
+3.6 -11.3 33 +2  1017.6  0.3  732  292           
12 19.11.17 330 (СЗ) 20000 м    10/10 870 м кучево-дожд. 
[Cb cap]
-0.4 -9.1 52 1020.1  1.8  734  297    +4.8       
18 19.11.17 310 (СЗ) 20000 м  {снег}  10/10 2000 м 
[Ns]
-2.1 -3.6 89 -2  1021.5  0.1  734  299           
21 19.11.17 280 (З) 20000 м  {снег}  ясно 
-2.2 -5.5 78 -3  1022.4  0.9  735  299           
00 20.11.17 310 (СЗ) 4000 м  слаб. снег  10/10 2000 м 
[Ns]
-2.4 -6.5 73 -6  1024.1  1.6  736  300  -2.6    0.3  равномерный
сухой снег
100% 
03 20.11.17 360 (С) 4000 м  слаб. снег  10/10 2000 м 
[Ns]
-4.5 -6.5 86 -4  1025.5  737  303  -4.6         
06 20.11.17 320 (СЗ) 2{11}  20000 м  {ливн. осадки, снег}  10/10 2000 м 
[Ns]
-3.6 -8.8 67 -5  1025.9  0.5  737  302           
09 20.11.17 310 (СЗ) 3{10}  20000 м    10/0 средняя 
[As op]
-4.2 -9.3 68 -6  1026.6  0.6  738  303           
12 20.11.17 300 (СЗ) 3{10}  4000 м  слаб. снег  10/10 2000 м 
[Ns]
-5.7 -9.4 75 -8  1028.8  1.8  739  305    -2.5  0.0     
15 20.11.17 290 (З) 20000 м  {снег}  10/10 2000 м 
[Ns]
-5.8 -9 78 -5  1029.1  0.3  739  305           
18 20.11.17 310 (СЗ) 20000 м  {снег}  10/10 2000 м 
[Ns]
-6.4 -8.3 86 -8  1029.9  0.7  740  306           
21 20.11.17 300 (СЗ) 20000 м  в посл. час снег  10/10 1200 м 
[Sc]
-6.5 -8 89 -6  1030.5  0.5  740  306           
00 21.11.17 170 (Ю) 4000 м  слаб. снег  10/10 1080 м 
[Sc]
-6.7 -7.4 95 -6  1030.7  0.2  740  307  -6.7    11  равномерный
сухой снег
100% 
03 21.11.17 тихо ()   4000 м  слаб. снег  10/10 1170 м 
[Sc]
-5.8 -6.8 93 -6  1030.4  -0.1  740  306  -6.8         
Время (UTC), дата Ветер
(°,м/с) 
Видим.   Явления Облачность Т
(°С)
Тd
(°С)
f(%) Тe
(°С)
Pmin
(гПа)
dP
(гПа)
Po
(мм)
O2
(г/м3)
Тmin Tmax R s Состояние
почвы

Для получения пояснительной информации подведите курсор к названию столбца.

ПОГОДА Агинское - архив

Всё, что Вы хотите узнать о погоде Агинское - удобно и подробно!

Выберите нужную дату (начиная с 1 января 2015* года) и нажмите кнопку "Найти".
Будут отображены архивные сводки погоды по пункту Агинское, начиная с указанной даты.


Отображать данные в формате CSV (для использования в таблицах Excel)


Внимание! Наш архив погоды предназначен исключительно для личного некоммерческого использования в познавательных целях. Если Вам необходимы официальные справки о состоянии погоды (для производственных, юридических, коммерческих и т.п. целей), обращайтесь в органы Росгидромета.

*Примечание: данная дата относится к архиву по метеостанциям СССР (Россия, СНГ, Балтия).
Архив по метеостанциям Зарубежной Европы и Азии (кроме Китая) хранится 10 дней, по другим регионам земного шара (Китай, Африка, Америка, Австралия, Океания) - 1 день.

Агинское - район местоположения метеостанции


Название, широта, долгота, высота метеостанции:
Агинское 55.2°ш. 94.9°д. 337 м над ур. моря [Российская Федерация]

Дополнительная информация

В oтличие oт бoльшинства пoгoдных сайтoв мы публикуем пoдрoбную метеoинфoрмацию в детальнoм прoфессиoнальнoм фoрмате.

Характеристики температуры и влажнoсти вoздуха измеряются на высoте 2 м в тени вдали oт зданий и деревьев.
Скoрoсть ветра измеряется на высoте 10 м (на урoвне рoста челoвека скoрoсть ветра ниже в 1.5-2 раза). Если метеoстанция нахoдится в гoрoде или в лесу, тo скoрoсть ветра занижена на 2-4 м/с пo сравнению с oткрытым местoм. Скoрoсть ветра над акватoриями крупных рек и oзёр, а также на вершинах хoлмoв на 2-5 м/с выше, чем в oбычных услoвиях.
Атмoсфернoе давление в разных тoчках местнoсти мoжет значительнo oтличаться oт давления на метеoстанции, в зависимoсти oт услoвий рельефа (при пoдъёме на 10 м давление пoнижается примернo на 1 мм рт.ст.).